Location: Recife
(8.0585°S, 34.8848°W)
Time: 20:50:34
(UTC-03:00)

A-11 Canister half - Pass Details

Date: 15 April 2026
Orbit: 1515 x 1684 km, 47.2° (Epoch: 16 May)

Event Time Altitude Azimuth Distance (km) Brightness Sun altitude
Rises 14:41:05 0° 312° (NW) 4,899 12.5 36.7°
Reaches altitude 10° 14:44:16 10° 309° (NW) 3,925 12.3 36.0°
Maximum altitude 14:54:16 65° 229° (SW) 1,815 10.2 33.6°
Drops below altitude 10° 15:04:19 10° 148° (SSE) 3,928 10.8 31.2°
Sets 15:07:31 0° 145° (SE) 4,904 11.2 30.5°
